TimeMDT,TemperatureF,Dew PointF,Humidity,Sea Level PressureIn,VisibilityMPH,Wind Direction,Wind SpeedMPH,Gust SpeedMPH,PrecipitationIn,Events,Conditions,WindDirDegrees,DateUTC
12:15 AM,24.8,15.8,69,30.13,10.0,NNE,3.5,-,N/A,,Clear,30,2012-10-08 06:15:00
12:35 AM,24.8,15.8,69,30.12,10.0,NNE,6.9,-,N/A,,Clear,20,2012-10-08 06:35:00
12:55 AM,24.8,15.8,69,30.13,10.0,North,9.2,-,N/A,,Clear,360,2012-10-08 06:55:00
1:15 AM,24.8,14.0,64,30.13,10.0,North,9.2,-,N/A,,Clear,360,2012-10-08 07:15:00
1:35 AM,23.0,14.0,68,30.13,10.0,North,4.6,-,N/A,,Clear,360,2012-10-08 07:35:00
1:55 AM,23.0,14.0,68,30.13,10.0,NNE,4.6,-,N/A,,Clear,20,2012-10-08 07:55:00
2:15 AM,23.0,14.0,68,30.13,10.0,NNE,6.9,-,N/A,,Clear,30,2012-10-08 08:15:00
2:35 AM,21.2,14.0,74,30.13,10.0,NE,5.8,-,N/A,,Clear,40,2012-10-08 08:35:00
2:55 AM,23.0,15.8,74,30.13,10.0,NNE,4.6,-,N/A,,Clear,30,2012-10-08 08:55:00
3:15 AM,21.2,12.2,68,30.13,10.0,NNE,5.8,-,N/A,,Clear,30,2012-10-08 09:15:00
3:35 AM,21.2,12.2,68,30.13,10.0,North,6.9,-,N/A,,Clear,10,2012-10-08 09:35:00
3:55 AM,19.4,12.2,74,30.12,10.0,NNE,4.6,-,N/A,,Clear,20,2012-10-08 09:55:00
4:15 AM,19.4,12.2,74,30.12,10.0,Calm,Calm,-,N/A,,Clear,0,2012-10-08 10:15:00
4:35 AM,19.4,14.0,80,30.12,10.0,North,8.1,-,N/A,,Clear,10,2012-10-08 10:35:00
5:15 AM,15.8,10.4,79,30.12,10.0,North,6.9,-,N/A,,Clear,360,2012-10-08 11:15:00
5:35 AM,17.6,12.2,79,30.11,10.0,North,6.9,-,N/A,,Clear,10,2012-10-08 11:35:00
5:55 AM,15.8,10.4,79,30.11,10.0,NE,5.8,-,N/A,,Clear,40,2012-10-08 11:55:00
6:15 AM,17.6,12.2,79,30.11,10.0,North,6.9,-,N/A,,Clear,360,2012-10-08 12:15:00
6:35 AM,15.8,12.2,86,30.11,10.0,NE,3.5,-,N/A,,Clear,40,2012-10-08 12:35:00
6:53 AM,17.6,12.2,79,30.11,10.0,North,6.9,-,N/A,,Clear,360,2012-10-08 12:53:00
7:53 AM,19.4,12.2,74,30.11,10.0,North,5.8,-,N/A,,Clear,10,2012-10-08 13:53:00
8:51 AM,23.0,15.8,74,30.12,10.0,Calm,Calm,-,N/A,,Partly Cloudy,0,2012-10-08 14:51:00
9:51 AM,32.0,15.8,51,30.12,10.0,Calm,Calm,-,N/A,,Partly Cloudy,0,2012-10-08 15:51:00
10:54 AM,37.4,12.2,36,30.09,10.0,Calm,Calm,-,N/A,,Scattered Clouds,0,2012-10-08 16:54:00
11:57 AM,44.6,12.2,27,30.06,10.0,South,8.1,-,N/A,,Clear,190,2012-10-08 17:57:00
12:53 PM,51.8,12.2,21,30.02,10.0,South,8.1,-,N/A,,Clear,180,2012-10-08 18:53:00
1:53 PM,57.2,10.4,16,29.99,10.0,SSW,11.5,17.3,N/A,,Clear,200,2012-10-08 19:53:00
2:51 PM,57.2,26.6,31,29.97,10.0,SSW,9.2,-,N/A,,Clear,200,2012-10-08 20:51:00
3:53 PM,60.8,10.4,14,29.95,10.0,SSW,11.5,18.4,N/A,,Clear,210,2012-10-08 21:53:00
4:58 PM,60.8,8.6,13,29.94,10.0,South,8.1,-,N/A,,Clear,180,2012-10-08 22:58:00
5:57 PM,57.2,6.8,13,29.95,10.0,West,11.5,-,N/A,,Clear,260,2012-10-08 23:57:00
6:58 PM,53.6,5.0,14,29.95,10.0,WSW,5.8,-,N/A,,Clear,240,2012-10-09 00:58:00
7:53 PM,51.8,5.0,15,29.96,10.0,SE,4.6,-,N/A,,Clear,140,2012-10-09 01:53:00
8:51 PM,51.8,5.0,15,29.97,10.0,SSW,16.1,-,N/A,,Clear,200,2012-10-09 02:51:00
8:55 PM,51.8,3.2,14,29.97,10.0,South,5.8,-,N/A,,Clear,180,2012-10-09 02:55:00
9:15 PM,50.0,3.2,15,29.97,10.0,SSW,6.9,-,N/A,,Clear,210,2012-10-09 03:15:00
9:35 PM,48.2,3.2,16,29.98,10.0,WSW,4.6,-,N/A,,Clear,240,2012-10-09 03:35:00
9:55 PM,50.0,5.0,16,29.98,10.0,WSW,5.8,-,N/A,,Clear,250,2012-10-09 03:55:00
10:15 PM,51.8,5.0,15,29.99,10.0,SW,3.5,-,N/A,,Clear,220,2012-10-09 04:15:00
10:35 PM,51.8,5.0,15,29.99,10.0,South,4.6,-,N/A,,Clear,190,2012-10-09 04:35:00
10:55 PM,50.0,5.0,16,30.00,10.0,SSW,5.8,-,N/A,,Clear,210,2012-10-09 04:55:00
11:15 PM,50.0,6.8,17,29.99,10.0,SW,5.8,-,N/A,,Clear,220,2012-10-09 05:15:00
11:35 PM,46.4,6.8,20,29.98,10.0,South,6.9,-,N/A,,Clear,190,2012-10-09 05:35:00
11:55 PM,48.2,6.8,19,29.99,10.0,SSW,8.1,-,N/A,,Clear,210,2012-10-09 05:55:00